Regional Weather Roundup
Issued by NWS Cleveland, OH

Home | Current Version | Previous Version | Text Only | Print | Product List | Glossary Off
Versions: 1 2 3 4 5 6 7 8 9 10 11 12 13 14 15 16 17 18 19 20 21 22 23 24 25 26 27 28 29 30 31 32 33 34 35 36 37 38 39 40 41 42 43 44 45 46 47 48 49 50

000
ASUS41 KCLE 271200
RWRCLE
OHIO REGIONAL WEATHER ROUNDUP
NATIONAL WEATHER SERVICE WILMINGTON, OH
700 AM EST TUE JAN 27 2015

NOTE: "FAIR" INDICATES FEW OR NO CLOUDS BELOW 12,000 FEET WITH NO
SIGNIFICANT WEATHER AND/OR OBSTRUCTIONS TO VISIBILITY.

OHZ001>008-015>018-024>027-034-035-043-044-271300-
   NORTHWEST OHIO

CITY           SKY/WX    TMP DP  RH WIND       PRES   REMARKS
DEFIANCE       CLOUDY    16  11  80 CALM      30.03R
FINDLAY        CLOUDY     7   2  80 CALM      30.00R HAZE
TOLEDO EXPRESS CLOUDY    13  10  88 NE5       30.03R WCI   5
TOLEDO EXEC    CLEAR     12   7  80 N5        30.04R WCI   4
LIMA           MOCLDY    11   6  81 CALM      29.99R
$$

OHZ009>014-019>023-028>033-038-089-271300-
   NORTHEAST OHIO

CITY           SKY/WX    TMP DP  RH WIND       PRES   REMARKS
CLE-HOPKINS    LGT SNOW  18  14  84 N14       30.00R WCI   4
CLE-LAKEFRONT  CLOUDY    19  14  81 N12       29.99R WCI   7
CUY CO. ARPT   LGT SNOW  19  16  86 NE12      29.97  WCI   7
LORAIN-ELYRIA  LGT SNOW  18  15  88 N10       29.98R FOG     WCI   6
ASHTABULA      LGT SNOW  17  13  84 N7        29.95R FOG     WCI   8
AKRON-CANTON   LGT SNOW  18  12  77 N9        29.91R WCI   7
WOOSTER        NOT AVBL
MANSFIELD      LGT SNOW  11   9  92 NW9       29.94R FOG     WCI  -2
YOUNGSTOWN     FLURRIES  17  13  84 N12       29.90R WCI   4
$$

OHZ042-051>053-060>062-070>072-077>081-271300-
  SOUTHWEST OHIO

CITY           SKY/WX    TMP DP  RH WIND       PRES   REMARKS
CINC-COVINGTON CLOUDY    21  13  71 N8        29.97R WCI  11
CINC-LUNKEN    CLOUDY    19  13  77 N7        30.02R WCI  10
HAMILTON       PTCLDY    17  12  80 NE5       30.02R WCI  10
DAYTON         NOT AVBL
WRIGHT-PAT AFB NOT AVBL
DAYTON GENERAL CLEAR     13   9  84 NE5       29.97R WCI   5
WILMINGTON     PTCLDY    12   7  80 N5        29.97R WCI   4
$$

OHZ036-037-039>041-045>050-054>059-063>069-073>076-082>088-271300-
  CENTRAL AND SOUTHEAST OHIO

CITY           SKY/WX    TMP DP  RH WIND       PRES   REMARKS
COLUMBUS       PTCLDY     8   4  83 N7        29.99R WCI  -3
OSU AIRPORT    PTCLDY     6   2  83 N5        29.98R FOG     WCI  -3
BOLTON FIELD   NOT AVBL
RICKENBACK AFB NOT AVBL
NEWARK         CLOUDY     9   5  84 CALM      29.97R
MARION         CLOUDY     0  -4  83 NW5       29.99R FOG     WCI -10
LANCASTER      PTCLDY     2  -2  83 CALM      29.97R FOG
ZANESVILLE     CLOUDY    14  10  84 NW7       29.95R WCI   4
NEW PHILLY     LGT SNOW  19  13  77 NW3       29.95R
$$



USA.gov is the U.S. government's official web portal to all federal, state and local government web resources and services.